When you browse on this site, cookies collect data to enhance your experience and personalize the content and advertising you see.
Visit our Privacy Policy to learn more. By continuing to use the site, you agree to this use of cookies and data.
  • En España
  • Lista de países
  • Para 7 días
  • Temperatura del agua
  • El tiempo en el mapa
  • Informadores
  • user-avatar
    Iniciar sesión

    Tiempo cada hora Lampa

    Hoy, 27 Enero, Lunes

    Tiempo Temperatura Precipitaciones Viento Presión Humedad
    00:00 +16°C° 0 mm 0 mps 690 mmHg 63%
    01:00 +16°C° 0 mm 0 mps 690 mmHg 64%
    02:00 +16°C° 0 mm 0 mps 690 mmHg 64%
    03:00 +16°C° 0 mm 0 mps 689 mmHg 63%
    04:00 +15°C° 0 mm 0 mps 689 mmHg 63%
    05:00 +18°C° 0 mm 0 mps 690 mmHg 55%
    06:00 +21°C° 0 mm 0 mps 691 mmHg 47%
    07:00 +23°C° 0 mm 0 mps 691 mmHg 38%
    08:00 +27°C° 0 mm 1 mps 691 mmHg 34%
    09:00 +29°C° 0 mm 2 mps 692 mmHg 30%
    10:00 +31°C° 0 mm 3 mps 692 mmHg 26%
    11:00 +33°C° 0 mm 3 mps 692 mmHg 24%
    12:00 +34°C° 0 mm 4 mps 692 mmHg 23%
    13:00 +35°C° 0 mm 5 mps 692 mmHg 21%
    14:00 +34°C° 0 mm 5 mps 692 mmHg 21%
    15:00 +34°C° 0 mm 5 mps 692 mmHg 22%
    16:00 +33°C° 0 mm 5 mps 691 mmHg 22%
    17:00 +28°C° 0 mm 4 mps 691 mmHg 29%
    18:00 +25°C° 0 mm 3 mps 690 mmHg 35%
    19:00 +20°C° 0 mm 2 mps 690 mmHg 42%
    20:00 +19°C° 0 mm 2 mps 690 mmHg 46%
    21:00 +18°C° 0 mm 1 mps 689 mmHg 51%
    22:00 +15°C° 0 mm 0 mps 689 mmHg 56%
    23:00 +14°C° 0 mm 0 mps 689 mmHg 58%

    Mañana, 28 Enero, Martes

    Tiempo Temperatura Precipitaciones Viento Presión Humedad
    00:00 +14°C° 0 mm 0 mps 688 mmHg 59%
    01:00 +13°C° 0 mm 0 mps 688 mmHg 61%
    02:00 +13°C° 0 mm 0 mps 688 mmHg 62%
    03:00 +13°C° 0 mm 0 mps 688 mmHg 63%
    04:00 +13°C° 0 mm 0 mps 687 mmHg 64%
    05:00 +15°C° 0 mm 0 mps 688 mmHg 56%
    06:00 +18°C° 0 mm 0 mps 689 mmHg 48%
    07:00 +22°C° 0 mm 1 mps 689 mmHg 39%
    08:00 +24°C° 0 mm 1 mps 690 mmHg 35%
    09:00 +26°C° 0 mm 2 mps 690 mmHg 31%
    10:00 +28°C° 0 mm 3 mps 691 mmHg 26%
    11:00 +30°C° 0 mm 3 mps 691 mmHg 25%
    12:00 +32°C° 0 mm 4 mps 691 mmHg 24%
    13:00 +33°C° 0 mm 4 mps 691 mmHg 23%
    14:00 +30°C° 0 mm 4 mps 691 mmHg 27%
    15:00 +29°C° 0 mm 5 mps 691 mmHg 31%
    16:00 +28°C° 0 mm 5 mps 690 mmHg 35%
    17:00 +25°C° 0 mm 4 mps 690 mmHg 46%
    18:00 +21°C° 0 mm 3 mps 690 mmHg 56%
    19:00 +18°C° 0 mm 2 mps 690 mmHg 67%
    20:00 +17°C° 0 mm 2 mps 689 mmHg 71%
    21:00 +15°C° 0 mm 1 mps 689 mmHg 76%
    22:00 +14°C° 0 mm 1 mps 689 mmHg 81%
    23:00 +13°C° 0 mm 0 mps 689 mmHg 82%

    Pasado mañana, 29 Enero, Miércoles

    Tiempo Temperatura Precipitaciones Viento Presión Humedad
    00:00 +12°C° 0 mm 0 mps 688 mmHg 84%
    01:00 +12°C° 0 mm 0 mps 688 mmHg 85%
    02:00 +12°C° 0 mm 0 mps 688 mmHg 85%
    03:00 +11°C° 0 mm 0 mps 688 mmHg 86%
    04:00 +11°C° 0 mm 0 mps 688 mmHg 86%
    05:00 +13°C° 0 mm 0 mps 689 mmHg 78%
    06:00 +15°C° 0 mm 0 mps 689 mmHg 70%
    07:00 +18°C° 0 mm 0 mps 690 mmHg 62%
    08:00 +22°C° 0 mm 1 mps 691 mmHg 53%
    09:00 +25°C° 0 mm 1 mps 691 mmHg 45%
    10:00 +27°C° 0 mm 2 mps 691 mmHg 36%
    11:00 +28°C° 0 mm 3 mps 691 mmHg 33%
    12:00 +30°C° 0 mm 3 mps 692 mmHg 29%
    13:00 +32°C° 0 mm 4 mps 692 mmHg 26%
    14:00 +30°C° 0 mm 4 mps 692 mmHg 27%
    15:00 +30°C° 0 mm 5 mps 692 mmHg 29%
    16:00 +29°C° 0 mm 5 mps 691 mmHg 30%
    17:00 +26°C° 0 mm 4 mps 691 mmHg 40%
    18:00 +22°C° 0 mm 3 mps 691 mmHg 50%
    19:00 +18°C° 0 mm 2 mps 691 mmHg 60%
    20:00 +17°C° 0 mm 2 mps 691 mmHg 65%
    21:00 +16°C° 0 mm 1 mps 690 mmHg 70%
    22:00 +13°C° 0 mm 0 mps 690 mmHg 75%
    23:00 +13°C° 0 mm 0 mps 690 mmHg 74%

    30 Enero, Jueves

    Tiempo Temperatura Precipitaciones Viento Presión Humedad
    00:00 +13°C° 0 mm 0 mps 689 mmHg 74%
    01:00 +12°C° 0 mm 0 mps 689 mmHg 74%
    02:00 +12°C° 0 mm 0 mps 688 mmHg 74%
    03:00 +12°C° 0 mm 0 mps 688 mmHg 73%
    04:00 +12°C° 0 mm 0 mps 688 mmHg 73%
    05:00 +15°C° 0 mm 0 mps 689 mmHg 63%
    06:00 +17°C° 0 mm 0 mps 690 mmHg 53%
    07:00 +20°C° 0 mm 0 mps 691 mmHg 43%
    08:00 +25°C° 0 mm 1 mps 691 mmHg 37%
    09:00 +27°C° 0 mm 2 mps 691 mmHg 31%
    10:00 +30°C° 0 mm 2 mps 692 mmHg 26%
    11:00 +31°C° 0 mm 3 mps 692 mmHg 23%
    12:00 +33°C° 0 mm 4 mps 692 mmHg 21%
    13:00 +34°C° 0 mm 4 mps 692 mmHg 19%
    14:00 +33°C° 0 mm 4 mps 692 mmHg 21%
    15:00 +32°C° 0 mm 5 mps 692 mmHg 22%
    16:00 +30°C° 0 mm 5 mps 691 mmHg 24%
    17:00 +27°C° 0 mm 4 mps 691 mmHg 33%
    18:00 +22°C° 0 mm 3 mps 691 mmHg 41%
    19:00 +18°C° 0 mm 2 mps 690 mmHg 50%
    20:00 +18°C° 0 mm 1 mps 690 mmHg 55%
    21:00 +16°C° 0 mm 1 mps 690 mmHg 59%
    22:00 +13°C° 0 mm 0 mps 690 mmHg 64%
    23:00 +13°C° 0 mm 0 mps 689 mmHg 64%

    31 Enero, Viernes

    Tiempo Temperatura Precipitaciones Viento Presión Humedad
    00:00 +13°C° 0 mm 0 mps 689 mmHg 64%
    01:00 +12°C° 0 mm 0 mps 688 mmHg 63%
    02:00 +12°C° 0 mm 0 mps 688 mmHg 63%
    03:00 +12°C° 0 mm 0 mps 688 mmHg 62%
    04:00 +12°C° 0 mm 0 mps 688 mmHg 62%
    05:00 +15°C° 0 mm 0 mps 689 mmHg 52%
    06:00 +17°C° 0 mm 0 mps 690 mmHg 43%
    07:00 +20°C° 0 mm 0 mps 691 mmHg 34%
    08:00 +24°C° 0 mm 1 mps 691 mmHg 30%
    09:00 +27°C° 0 mm 2 mps 692 mmHg 26%
    10:00 +29°C° 0 mm 3 mps 692 mmHg 22%
    11:00 +30°C° 0 mm 3 mps 692 mmHg 21%
    12:00 +32°C° 0 mm 4 mps 692 mmHg 20%
    13:00 +33°C° 0 mm 4 mps 692 mmHg 19%
    14:00 +32°C° 0 mm 4 mps 692 mmHg 20%
    15:00 +32°C° 0 mm 4 mps 692 mmHg 22%
    16:00 +30°C° 0 mm 4 mps 692 mmHg 23%
    17:00 +26°C° 0 mm 4 mps 691 mmHg 32%
    18:00 +22°C° 0 mm 3 mps 691 mmHg 41%
    19:00 +18°C° 0 mm 2 mps 690 mmHg 50%
    20:00 +18°C° 0 mm 1 mps 690 mmHg 55%
    21:00 +16°C° 0 mm 1 mps 690 mmHg 60%
    22:00 +13°C° 0 mm 0 mps 690 mmHg 65%
    23:00 +13°C° 0 mm 0 mps 689 mmHg 66%

    1 Febrero, Sábado

    Tiempo Temperatura Precipitaciones Viento Presión Humedad
    00:00 +12°C° 0 mm 0 mps 689 mmHg 67%
    01:00 +12°C° 0 mm 0 mps 688 mmHg 69%
    02:00 +11°C° 0 mm 0 mps 688 mmHg 70%
    03:00 +11°C° 0 mm 0 mps 688 mmHg 71%
    04:00 +11°C° 0 mm 0 mps 688 mmHg 72%
    05:00 +13°C° 0 mm 0 mps 688 mmHg 64%
    06:00 +15°C° 0 mm 0 mps 689 mmHg 56%
    07:00 +17°C° 0 mm 0 mps 690 mmHg 48%
    08:00 +22°C° 0 mm 1 mps 690 mmHg 42%
    09:00 +24°C° 0 mm 2 mps 691 mmHg 36%
    10:00 +26°C° 0 mm 2 mps 691 mmHg 30%
    11:00 +27°C° 0 mm 3 mps 691 mmHg 27%
    12:00 +29°C° 0 mm 3 mps 691 mmHg 25%
    13:00 +30°C° 0 mm 4 mps 691 mmHg 23%
    14:00 +29°C° 0 mm 4 mps 691 mmHg 25%
    15:00 +28°C° 0 mm 4 mps 691 mmHg 27%
    16:00 +27°C° 0 mm 5 mps 691 mmHg 29%
    17:00 +23°C° 0 mm 4 mps 690 mmHg 39%
    18:00 +19°C° 0 mm 3 mps 690 mmHg 50%
    19:00 +16°C° 0 mm 2 mps 690 mmHg 60%
    20:00 +15°C° 0 mm 2 mps 690 mmHg 66%
    21:00 +13°C° 0 mm 1 mps 690 mmHg 73%
    22:00 +12°C° 0 mm 1 mps 689 mmHg 79%
    23:00 +10°C° 0 mm 0 mps 689 mmHg 79%
    Mostrar más